Tracking 30990 objects as of 8-Jul-2025
HD Live streaming from Space Station
objects crossing your sky now

STARLINK-5965

Track STARLINK-5965 now!
10-day predictions
STARLINK-5965 is classified as:


NORAD ID: 56915
Int'l Code: 2023-083AR
Perigee: 565.5 km
Apogee: 567.0 km
Inclination: 43.0 °
Period: 95.8 minutes
Semi major axis: 6937 km
RCS: Unknown
Launch date: June 12, 2023
Source: United States (US)
Launch site: AIR FORCE EASTERN TEST RANGE (AFETR)
Your satellite tracking list
Your tracking list is empty




NASA's NSSDC Master Catalog

Two Line Element Set (TLE):
1 56915U 23083AR  25189.08905906 -.00000876  00000-0 -49760-4 0  9997
2 56915  43.0038 318.0809 0001058 278.3516  81.7206 15.02530662114225
Source of the keplerian elements: AFSPC